Location: Malvern Link
(52.1333°N, 2.3000°W)
Time: 10:29:41
(UTC+00:00)

DIWATA 2B (PO-101) - Pass Details

Date: 27 June 2022
Orbit: 583 x 599 km, 98.0° (Epoch: 14 August)

Event Time Altitude Azimuth Distance (km) Brightness Sun altitude
Exits shadow 02:42:26 - 204° (SSW) 1,982 ? -7.7°
Reaches altitude 10° 02:42:34 10° 204° (SSW) 1,935 ? -7.7°
Maximum altitude 02:46:14 29° 265° (W) 1,121 ? -7.4°
Drops below altitude 10° 02:49:56 10° 326° (NW) 1,952 ? -7.1°
Sets 02:52:21 0° 338° (NNW) 2,861 ? -6.8°
